QPF
0.00 0.00 0.00 0.00 0.00 0.05 0.10 0.08 0.02 0.01 0.00 0.00 0.00 0.00 0.00 0.00 0.00 0.00 0.00 0.00 0.00 0.00 0.00 0.00 0.00 0.00 0.00 0.00 0.00 0.00 0.00 0.00 0.00 0.00 0.00 0.00 0.00 0.00 0.00 0.00 0.00 0.00 0.00
0.00 0.00 0.00 0.00 0.00 0.02 0.08 0.11 0.07 0.00 0.00 0.00 0.00 0.00 0.00 0.00 0.00 0.00 0.00 0.00 0.00 0.00 0.00 0.00 0.00 0.00 0.00 0.00 0.00 0.00 0.00 0.00 0.00 0.00 0.00 0.00 0.00 0.00 0.00 0.00 0.00 0.00 0.00
0.00 0.00 0.00 0.00 0.00 0.00 0.05 0.07 0.06 0.03 0.01 0.00 0.00 0.00 0.00 0.00 0.00 0.00 0.00 0.00 0.00 0.00 0.00 0.00 0.00 0.00 0.00 0.00 0.00 0.00 0.00 0.00 0.00 0.00 0.00 0.00 0.00 0.00 0.00 0.00 0.00 0.00 0.00
0.00 0.00 0.00 0.00 0.00 0.00 0.01 0.05 0.05 0.06 0.03 0.01 0.00 0.00 0.00 0.00 0.00 0.00 0.00 0.00 0.00 0.00 0.00 0.00 0.00 0.00 0.00 0.00 0.00 0.00 0.00 0.00 0.00 0.00 0.00 0.00 0.00 0.00 0.00 0.00 0.00 0.00 0.00
0.00 0.00 0.00 0.00 0.00 0.00 0.00 0.00 0.02 0.02 0.02 0.02 0.01 0.01 0.01 0.00 0.00 0.00 0.00 0.00 0.00 0.00 0.00 0.00 0.00 0.00 0.00 0.00 0.00 0.00 0.00 0.00 0.00 0.00 0.00 0.00 0.00 0.00 0.00 0.00 0.00 0.00 0.00
0.00 0.00 0.00 0.00 0.00 0.00 0.00 0.00 0.01 0.01 0.01 0.03 0.01 0.01 0.01 0.03 0.01 0.00 0.00 0.00 0.00 0.00 0.00 0.00 0.00 0.00 0.00 0.00 0.00 0.00 0.00 0.00 0.00 0.00 0.00 0.00 0.00 0.00 0.00 0.00 0.00 0.00 0.00
0.00 0.00 0.00 0.00 0.00 0.00 0.00 0.00 0.01 0.01 0.01 0.02 0.03 0.03 0.03 0.02 0.05 0.05 0.01 0.00 0.00 0.00 0.00 0.00 0.00 0.00 0.00 0.00 0.00 0.00 0.00 0.00 0.00 0.00 0.00 0.00 0.00 0.00 0.00 0.00 0.00 0.00 0.00
0.00 0.00 0.00 0.00 0.00 0.00 0.00 0.00 0.00 0.01 0.01 0.02 0.02 0.04 0.04 0.03 0.01 0.03 0.04 0.01 0.00 0.00 0.00 0.00 0.00 0.00 0.00 0.00 0.00 0.00 0.00 0.00 0.00 0.00 0.00 0.00 0.00 0.00 0.00 0.00 0.00 0.00 0.00
0.00 0.00 0.00 0.00 0.00 0.00 0.00 0.00 0.00 0.00 0.01 0.04 0.04 0.03 0.02 0.01 0.01 0.02 0.01 0.01 0.01 0.00 0.00 0.00 0.00 0.00 0.00 0.00 0.00 0.00 0.00 0.00 0.00 0.00 0.00 0.00 0.00 0.00 0.00 0.00 0.00 0.00 0.00
0.00 0.00 0.00 0.00 0.00 0.00 0.00 0.00 0.00 0.00 0.00 0.02 0.04 0.04 0.04 0.04 0.02 0.01 0.01 0.00 0.01 0.01 0.01 0.00 0.00 0.00 0.00 0.00 0.00 0.00 0.00 0.00 0.00 0.00 0.00 0.00 0.00 0.00 0.00 0.00 0.00 0.00 0.00
0.00 0.00 0.00 0.00 0.00 0.00 0.00 0.00 0.00 0.00 0.00 0.01 0.01 0.01 0.00 0.00 0.00 0.00 0.01 0.01 0.01 0.00 0.01 0.02 0.02 0.00 0.00 0.00 0.00 0.00 0.00 0.00 0.00 0.00 0.00 0.00 0.00 0.00 0.00 0.00 0.00 0.00 0.00
0.00 0.00 0.00 0.00 0.00 0.00 0.00 0.00 0.00 0.00 0.00 0.00 0.00 0.01 0.00 0.00 0.00 0.00 0.00 0.00 0.00 0.00 0.01 0.01 0.02 0.02 0.01 0.00 0.00 0.00 0.00 0.00 0.00 0.00 0.00 0.00 0.00 0.00 0.00 0.00 0.00 0.00 0.00
0.00 0.00 0.00 0.00 0.00 0.00 0.00 0.00 0.00 0.00 0.00 0.00 0.00 0.00 0.00 0.00 0.00 0.00 0.00 0.00 0.00 0.00 0.00 0.00 0.00 0.01 0.01 0.01 0.00 0.00 0.00 0.00 0.00 0.00 0.00 0.00 0.00 0.00 0.00 0.00 0.00 0.00 0.00
0.00 0.00 0.00 0.00 0.00 0.00 0.00 0.00 0.00 0.00 0.00 0.00 0.00 0.00 0.00 0.00 0.00 0.00 0.00 0.00 0.00 0.00 0.00 0.00 0.00 0.00 0.00 0.00 0.00 0.00 0.00 0.00 0.00 0.00 0.00 0.00 0.00 0.00 0.00 0.00 0.00 0.00 0.00
0.00 0.00 0.00 0.00 0.00 0.00 0.00 0.00 0.00 0.00 0.00 0.00 0.00 0.00 0.00 0.00 0.00 0.00 0.00 0.00 0.00 0.00 0.00 0.00 0.00 0.00 0.00 0.00 0.00 0.00 0.00 0.00 0.00 0.00 0.00 0.00 0.00 0.00 0.00 0.00 0.00 0.00 0.00
0.00 0.00 0.00 0.00 0.00 0.00 0.00 0.00 0.00 0.00 0.00 0.00 0.00 0.00 0.00 0.00 0.00 0.00 0.00 0.00 0.00 0.00 0.00 0.00 0.00 0.01 0.01 0.00 0.00 0.00 0.00 0.00 0.00 0.00 0.00 0.00 0.00 0.00 0.00 0.00 0.00 0.00 0.00
0.00 0.00 0.00 0.00 0.00 0.00 0.00 0.00 0.00 0.00 0.00 0.00 0.00 0.00 0.00 0.00 0.00 0.00 0.00 0.00 0.00 0.00 0.00 0.00 0.00 0.00 0.00 0.00 0.00 0.00 0.00 0.00 0.00 0.00 0.00 0.00 0.00 0.00 0.00 0.00 0.00 0.00 0.00
0.00 0.00 0.00 0.00 0.00 0.00 0.00 0.00 0.00 0.00 0.00 0.00 0.00 0.00 0.00 0.00 0.00 0.00 0.00 0.00 0.00 0.00 0.00 0.00 0.00 0.00 0.00 0.00 0.00 0.00 0.00 0.00 0.00 0.00 0.00 0.00 0.00 0.00 0.00 0.00 0.00 0.00 0.00
0.00 0.00 0.00 0.00 0.00 0.00 0.00 0.00 0.00 0.00 0.00 0.00 0.00 0.00 0.00 0.00 0.00 0.00 0.00 0.00 0.00 0.00 0.00 0.00 0.00 0.00 0.00 0.00 0.00 0.00 0.00 0.00 0.00 0.00 0.00 0.00 0.00 0.00 0.00 0.00 0.00 0.00 0.00
0.00 0.00 0.00 0.00 0.00 0.00 0.00 0.00 0.00 0.00 0.00 0.00 0.00 0.00 0.00 0.00 0.00 0.00 0.00 0.00 0.00 0.00 0.00 0.00 0.00 0.00 0.00 0.00 0.00 0.00 0.00 0.00 0.00 0.00 0.00 0.00 0.00 0.00 0.00 0.00 0.00 0.00 0.00
0.00 0.00 0.00 0.00 0.00 0.00 0.00 0.00 0.00 0.00 0.00 0.00 0.00 0.00 0.00 0.00 0.00 0.00 0.00 0.00 0.00 0.00 0.00 0.00 0.00 0.00 0.00 0.00 0.00 0.00 0.00 0.00 0.00 0.00 0.00 0.00 0.00 0.00 0.00 0.00 0.00 0.00 0.00
0.00 0.00 0.00 0.00 0.00 0.00 0.00 0.00 0.00 0.00 0.00 0.00 0.00 0.00 0.00 0.00 0.00 0.00 0.00 0.00 0.00 0.00 0.00 0.00 0.00 0.00 0.00 0.00 0.00 0.00 0.00 0.00 0.00 0.00 0.00 0.00 0.00 0.00 0.00 0.00 0.00 0.00 0.00
0.00 0.00 0.00 0.00 0.00 0.00 0.00 0.00 0.00 0.00 0.00 0.00 0.00 0.00 0.00 0.00 0.00 0.00 0.00 0.00 0.00 0.00 0.00 0.00 0.00 0.00 0.00 0.00 0.00 0.00 0.00 0.00 0.00 0.00 0.00 0.00 0.00 0.00 0.00 0.00 0.00 0.00 0.00
0.00 0.00 0.00 0.00 0.00 0.00 0.00 0.00 0.00 0.00 0.00 0.00 0.00 0.00 0.00 0.00 0.00 0.00 0.00 0.00 0.00 0.00 0.00 0.00 0.00 0.00 0.00 0.00 0.00 0.00 0.00 0.00 0.00 0.00 0.00 0.00 0.00 0.00 0.00 0.00 0.00 0.00 0.00
0.00 0.00 0.00 0.00 0.00 0.00 0.00 0.00 0.00 0.00 0.00 0.00 0.00 0.00 0.00 0.00 0.00 0.00 0.00 0.00 0.00 0.00 0.00 0.00 0.00 0.00 0.00 0.00 0.00 0.00 0.00 0.00 0.00 0.00 0.00 0.00 0.00 0.00 0.00 0.00 0.00 0.00 0.00
0.00 0.00 0.00 0.00 0.00 0.00 0.00 0.00 0.00 0.00 0.00 0.00 0.00 0.00 0.00 0.00 0.00 0.00 0.00 0.00 0.00 0.00 0.00 0.00 0.00 0.00 0.00 0.00 0.00 0.00 0.00 0.00 0.00 0.00 0.00 0.00 0.00 0.00 0.00 0.00 0.00 0.00 0.00
MSLP
1007.84 1007.83 1007.60 1008.07 1008.27 1006.64 1006.79 1007.69 1009.27 1011.46 1012.15 1013.31 1014.44 1015.67 1016.07 1016.64 1016.94 1017.39 1017.62 1017.87 1018.31 1018.74 1019.41 1019.81 1020.65 1021.07 1021.71 1022.14 1022.67 1023.53 1024.10 1025.14 1025.22 1025.63 1026.84 1026.96 1027.05 1026.97 1027.25 1027.29 1027.46 1027.64 1027.72
1007.64 1007.28 1007.19 1007.72 1007.96 1007.50 1007.85 1008.98 1009.77 1010.84 1011.41 1012.49 1013.37 1014.55 1015.33 1016.29 1016.67 1017.12 1017.72 1017.77 1017.98 1018.54 1019.21 1019.48 1020.32 1020.92 1021.75 1022.15 1022.72 1022.97 1024.05 1025.01 1025.05 1025.42 1026.60 1027.49 1027.62 1027.61 1027.73 1027.72 1027.82 1028.12 1028.16
1007.09 1007.48 1007.13 1007.33 1007.74 1008.20 1008.13 1008.87 1009.78 1010.13 1011.12 1012.47 1013.27 1014.40 1015.22 1016.16 1016.67 1016.96 1017.62 1017.76 1017.87 1018.33 1018.83 1019.35 1020.06 1020.87 1021.41 1021.96 1022.52 1022.77 1023.22 1024.27 1024.83 1024.86 1025.53 1027.10 1027.21 1027.70 1028.12 1028.29 1028.31 1028.40 1028.49
1006.14 1006.96 1007.01 1007.10 1007.48 1007.72 1008.11 1008.81 1009.43 1010.26 1010.95 1012.12 1013.00 1013.64 1014.20 1015.38 1015.57 1016.20 1017.02 1017.65 1017.62 1018.22 1018.56 1019.29 1019.83 1020.89 1021.25 1021.78 1022.28 1022.62 1023.13 1023.63 1024.71 1025.25 1025.41 1025.32 1026.06 1027.10 1028.54 1028.73 1028.87 1029.05 1028.95
1006.67 1006.61 1006.96 1006.60 1006.84 1007.48 1007.89 1008.27 1008.80 1009.72 1010.75 1011.63 1012.08 1012.78 1013.54 1014.17 1014.56 1015.54 1016.41 1017.08 1017.47 1017.50 1018.18 1018.74 1019.38 1020.31 1020.96 1021.47 1021.90 1022.51 1022.88 1023.27 1023.89 1024.52 1025.27 1025.47 1026.03 1026.11 1027.05 1028.46 1029.10 1029.33 1029.51
1006.81 1006.66 1007.15 1007.03 1006.94 1007.21 1007.77 1008.44 1008.99 1009.33 1010.07 1010.74 1011.66 1012.22 1012.89 1013.35 1014.18 1015.27 1015.97 1016.59 1016.98 1017.24 1017.66 1018.23 1018.94 1019.77 1020.45 1021.05 1021.52 1022.02 1022.66 1023.04 1023.33 1023.94 1024.37 1024.67 1025.49 1025.89 1026.44 1027.75 1028.82 1029.34 1029.95
1007.33 1007.27 1007.27 1007.31 1007.22 1007.18 1007.62 1008.10 1008.83 1009.56 1009.87 1010.25 1010.94 1011.53 1012.21 1012.84 1013.45 1014.19 1015.05 1015.82 1016.50 1016.83 1017.26 1017.69 1018.67 1019.23 1019.82 1020.65 1021.32 1021.73 1022.27 1022.89 1023.20 1023.55 1023.91 1024.04 1024.67 1025.10 1025.90 1026.40 1028.22 1029.22 1029.91
1008.78 1008.29 1008.20 1007.90 1007.49 1007.45 1007.45 1007.76 1008.42 1009.05 1009.89 1010.43 1010.33 1011.36 1012.08 1012.69 1013.48 1013.79 1014.11 1014.35 1015.04 1015.85 1016.21 1016.84 1017.74 1018.54 1019.39 1020.11 1020.73 1021.33 1021.74 1022.43 1022.85 1023.35 1023.60 1023.89 1024.26 1024.60 1025.41 1026.08 1026.77 1028.70 1029.84
1009.83 1009.96 1009.05 1008.73 1008.63 1008.41 1008.12 1008.17 1008.55 1009.07 1009.64 1010.26 1010.74 1011.27 1011.86 1012.49 1012.43 1012.97 1013.23 1013.45 1014.14 1014.99 1015.77 1016.22 1017.10 1017.84 1018.64 1019.55 1020.18 1020.77 1021.27 1021.94 1022.59 1022.99 1023.41 1023.84 1024.23 1024.26 1024.71 1025.16 1025.41 1026.57 1028.71
1010.36 1010.80 1010.68 1010.32 1009.95 1009.69 1009.62 1009.37 1009.14 1009.04 1009.31 1009.79 1010.42 1010.78 1011.34 1011.78 1012.36 1012.43 1012.92 1013.42 1014.01 1014.56 1015.35 1016.07 1016.75 1017.43 1018.23 1019.08 1019.88 1020.30 1020.80 1021.52 1022.32 1022.96 1023.24 1023.73 1024.08 1024.46 1024.74 1025.07 1025.15 1025.56 1026.60
1012.00 1012.01 1011.81 1011.56 1011.55 1011.24 1010.92 1010.68 1010.47 1010.27 1009.99 1010.01 1010.21 1010.58 1011.08 1011.66 1011.92 1012.44 1013.03 1013.38 1013.91 1014.47 1014.95 1015.53 1016.33 1017.16 1018.13 1018.85 1019.50 1020.10 1020.63 1021.36 1022.24 1022.71 1023.26 1023.90 1024.07 1024.66 1024.98 1025.31 1025.53 1025.87 1026.23
1013.53 1013.42 1013.03 1012.70 1012.39 1012.21 1012.03 1011.92 1011.54 1011.09 1010.74 1010.35 1010.02 1010.25 1010.72 1011.22 1011.59 1012.04 1012.55 1013.01 1013.57 1014.02 1014.50 1015.29 1016.13 1016.81 1017.37 1018.36 1019.08 1019.81 1020.36 1021.01 1022.19 1023.01 1023.50 1024.24 1024.50 1024.83 1025.35 1025.58 1025.88 1026.20 1026.15
1014.93 1014.60 1014.16 1013.87 1013.41 1013.09 1012.84 1012.57 1012.10 1011.66 1011.18 1010.78 1010.51 1010.47 1010.60 1010.96 1011.32 1011.71 1012.06 1012.37 1013.00 1013.68 1014.38 1014.98 1015.60 1016.04 1016.79 1017.54 1018.22 1018.76 1019.71 1020.43 1021.99 1022.50 1023.30 1024.06 1025.02 1025.23 1025.38 1025.85 1026.15 1026.26 1026.41
1016.42 1016.25 1015.83 1015.39 1015.00 1014.52 1014.02 1013.51 1012.94 1012.33 1011.69 1011.25 1011.18 1011.20 1011.10 1011.15 1011.35 1011.50 1011.84 1012.44 1012.84 1013.38 1013.95 1014.59 1015.07 1015.70 1016.25 1016.82 1017.55 1018.31 1019.19 1019.90 1021.04 1022.14 1022.76 1023.91 1024.71 1025.05 1025.16 1025.69 1026.28 1026.47 1026.90
1017.51 1017.18 1016.85 1016.24 1015.89 1015.34 1014.85 1014.46 1013.90 1013.18 1012.53 1011.94 1011.60 1011.38 1011.19 1011.00 1011.21 1011.54 1011.84 1012.29 1012.63 1013.09 1013.67 1014.35 1014.98 1015.40 1015.93 1016.52 1017.14 1017.84 1018.95 1019.73 1020.66 1021.99 1023.03 1023.89 1024.39 1025.01 1025.12 1025.59 1026.65 1026.70 1027.21
1018.55 1018.10 1017.60 1016.76 1016.42 1016.05 1015.44 1014.96 1014.31 1013.72 1013.04 1012.46 1012.05 1011.67 1011.40 1011.31 1011.41 1011.63 1011.89 1012.25 1012.71 1012.97 1013.49 1013.94 1014.38 1015.06 1015.61 1016.11 1016.65 1017.82 1018.67 1019.74 1020.55 1021.74 1022.95 1023.67 1024.38 1024.79 1025.39 1025.71 1026.20 1026.54 1027.10
1019.37 1018.64 1018.24 1017.24 1016.61 1016.49 1015.66 1015.20 1014.70 1014.11 1013.48 1013.01 1012.59 1012.23 1011.95 1011.86 1011.87 1011.84 1012.03 1012.28 1012.55 1012.87 1013.23 1013.74 1014.23 1014.76 1015.28 1015.98 1016.63 1017.35 1018.67 1019.88 1020.76 1021.22 1022.39 1023.14 1024.34 1025.18 1025.31 1026.05 1026.48 1026.99 1027.36
1020.46 1019.31 1018.66 1017.90 1017.13 1016.53 1015.71 1014.97 1014.49 1014.15 1013.80 1013.45 1013.21 1012.90 1012.60 1012.40 1012.29 1012.32 1012.38 1012.48 1012.64 1012.86 1013.17 1013.61 1014.11 1014.71 1015.30 1015.99 1016.70 1017.59 1018.47 1019.91 1021.06 1021.57 1022.10 1023.10 1024.16 1024.98 1025.68 1025.99 1027.13 1027.44 1027.90
1021.12 1019.93 1019.24 1018.65 1017.92 1016.98 1016.36 1015.18 1014.87 1014.40 1013.72 1013.52 1013.24 1013.05 1012.77 1012.55 1012.51 1012.55 1012.59 1012.71 1012.90 1013.16 1013.41 1013.79 1014.23 1014.72 1015.26 1016.05 1016.75 1017.63 1018.76 1020.37 1021.26 1021.95 1022.65 1023.42 1024.02 1024.89 1025.48 1026.39 1027.29 1028.00 1028.11
1021.55 1020.54 1019.86 1018.75 1018.19 1017.34 1016.85 1016.09 1015.14 1014.51 1013.84 1013.67 1013.61 1013.43 1013.06 1012.67 1012.44 1012.53 1012.70 1012.81 1012.95 1013.29 1013.60 1014.00 1014.38 1014.75 1015.24 1016.04 1016.58 1017.27 1018.66 1020.22 1021.39 1022.46 1023.20 1023.63 1024.37 1024.92 1025.70 1026.19 1027.17 1027.93 1028.61
1021.91 1021.03 1020.22 1019.53 1018.95 1018.24 1017.33 1016.29 1015.14 1014.80 1014.19 1013.97 1013.97 1013.74 1013.55 1013.20 1012.75 1012.69 1012.84 1013.04 1013.24 1013.56 1013.89 1014.26 1014.66 1015.06 1015.46 1016.31 1016.70 1017.19 1018.40 1019.62 1021.22 1022.26 1023.32 1023.88 1024.30 1025.07 1025.92 1026.56 1027.11 1027.78 1028.72
1021.77 1021.17 1020.59 1019.87 1019.75 1018.95 1018.03 1016.54 1015.60 1015.08 1014.63 1014.45 1014.32 1014.17 1013.83 1013.56 1013.31 1013.15 1013.36 1013.53 1013.71 1014.03 1014.33 1014.65 1015.12 1015.59 1016.11 1016.69 1017.26 1017.66 1018.36 1019.68 1020.70 1022.15 1023.18 1023.69 1024.45 1025.22 1025.98 1026.69 1027.08 1027.77 1028.76
1022.41 1021.75 1021.18 1020.84 1019.88 1019.02 1018.11 1016.99 1016.55 1015.78 1015.41 1015.10 1014.96 1014.67 1014.45 1013.94 1013.73 1013.78 1013.89 1014.16 1014.33 1014.49 1014.84 1015.03 1015.51 1016.10 1016.63 1017.15 1017.69 1018.01 1019.07 1020.08 1021.14 1022.29 1023.02 1023.63 1024.56 1025.29 1026.02 1026.63 1026.99 1028.05 1028.87
1022.77 1022.36 1021.91 1021.13 1020.10 1019.26 1018.41 1017.75 1017.14 1016.59 1016.21 1015.94 1015.61 1015.25 1014.89 1014.40 1014.06 1014.13 1014.37 1014.48 1014.62 1014.86 1015.15 1015.47 1015.86 1016.42 1016.88 1017.35 1017.90 1018.61 1019.61 1020.67 1021.65 1022.57 1023.24 1023.99 1024.99 1025.73 1026.35 1027.14 1028.15 1028.68 1029.10
1023.63 1022.93 1022.16 1021.43 1020.81 1019.92 1018.92 1018.12 1017.61 1016.92 1016.51 1016.29 1016.13 1015.60 1015.25 1014.63 1014.42 1014.48 1014.64 1014.80 1014.84 1014.86 1015.13 1015.50 1015.78 1016.07 1016.89 1017.51 1017.70 1018.42 1019.66 1020.75 1021.68 1022.61 1023.60 1024.68 1025.56 1026.52 1027.32 1028.01 1028.56 1028.93 1029.24
1024.12 1023.40 1022.70 1021.96 1021.14 1020.36 1019.65 1018.73 1018.19 1017.51 1016.84 1016.44 1016.24 1015.86 1015.71 1015.10 1014.65 1014.82 1014.99 1015.07 1015.14 1015.29 1015.49 1015.83 1016.15 1016.67 1016.98 1017.47 1018.15 1019.05 1020.10 1020.87 1021.84 1022.88 1024.01 1025.15 1025.99 1026.68 1027.50 1028.07 1028.59 1029.11 1029.60
Thickness
5634 5638 5642 5636 5629 5636 5642 5650 5640 5634 5639 5638 5638 5637 5645 5647 5651 5652 5654 5659 5661 5661 5657 5659 5654 5653 5651 5651 5648 5642 5639 5631 5633 5630 5621 5620 5620 5620 5617 5617 5614 5611 5610
5629 5637 5639 5635 5633 5632 5635 5634 5625 5635 5642 5643 5645 5642 5643 5642 5645 5646 5646 5651 5655 5654 5651 5654 5649 5647 5643 5642 5639 5639 5632 5625 5626 5625 5615 5609 5609 5608 5606 5606 5604 5602 5600
5630 5628 5635 5633 5634 5632 5639 5638 5636 5639 5637 5636 5639 5635 5634 5632 5635 5640 5640 5644 5646 5646 5646 5646 5643 5639 5637 5634 5632 5632 5629 5624 5619 5620 5616 5601 5603 5598 5596 5594 5593 5592 5590
5631 5627 5633 5632 5632 5636 5639 5637 5635 5633 5634 5632 5633 5636 5640 5635 5640 5638 5635 5634 5639 5638 5638 5635 5634 5627 5629 5627 5624 5623 5622 5619 5611 5606 5606 5608 5603 5595 5585 5581 5579 5577 5578
5615 5620 5622 5633 5632 5634 5636 5640 5640 5636 5632 5629 5633 5634 5634 5635 5636 5631 5628 5627 5629 5632 5630 5630 5627 5621 5621 5617 5617 5614 5612 5611 5607 5604 5596 5597 5592 5592 5585 5573 5567 5565 5564
5611 5611 5613 5620 5627 5627 5630 5631 5632 5634 5633 5630 5628 5631 5631 5631 5629 5623 5623 5622 5624 5626 5625 5623 5620 5616 5613 5611 5608 5607 5604 5601 5601 5597 5594 5593 5587 5584 5579 5567 5558 5556 5551
5600 5603 5609 5609 5616 5624 5624 5626 5627 5625 5627 5625 5626 5626 5624 5622 5624 5621 5617 5616 5615 5617 5617 5616 5611 5610 5607 5602 5599 5599 5596 5592 5591 5589 5586 5586 5581 5577 5571 5569 5552 5546 5539
5580 5587 5587 5594 5604 5614 5618 5620 5619 5621 5617 5617 5623 5618 5617 5616 5612 5614 5616 5618 5617 5616 5617 5615 5609 5605 5601 5597 5594 5592 5590 5585 5582 5578 5576 5574 5571 5569 5562 5557 5553 5537 5528
5565 5567 5578 5581 5585 5597 5603 5608 5608 5612 5611 5612 5611 5612 5611 5609 5612 5612 5614 5618 5617 5614 5609 5610 5605 5601 5597 5591 5587 5586 5583 5577 5573 5570 5567 5564 5560 5561 5557 5552 5551 5542 5525
5556 5553 5558 5563 5568 5574 5579 5586 5595 5602 5604 5605 5603 5607 5605 5603 5602 5607 5607 5607 5608 5608 5603 5599 5595 5592 5589 5583 5578 5578 5576 5571 5566 5560 5559 5554 5550 5547 5545 5542 5542 5539 5531
5533 5536 5540 5545 5548 5553 5558 5564 5572 5580 5589 5592 5593 5595 5594 5594 5595 5595 5594 5596 5597 5595 5597 5594 5590 5585 5579 5572 5570 5568 5566 5562 5555 5552 5548 5542 5541 5535 5532 5530 5529 5526 5523
5512 5517 5523 5528 5534 5538 5542 5545 5552 5561 5570 5579 5585 5587 5587 5586 5587 5587 5587 5588 5587 5587 5587 5584 5582 5578 5576 5567 5562 5560 5558 5553 5544 5538 5535 5527 5526 5523 5519 5517 5515 5512 5511
5490 5498 5505 5510 5516 5522 5527 5532 5539 5546 5554 5564 5571 5575 5577 5576 5577 5578 5579 5581 5579 5577 5575 5573 5571 5571 5568 5564 5560 5558 5547 5546 5530 5527 5521 5516 5508 5508 5506 5503 5501 5500 5498
5468 5472 5479 5488 5495 5502 5508 5515 5523 5530 5539 5547 5552 5559 5563 5565 5566 5568 5568 5567 5568 5567 5566 5564 5563 5560 5559 5556 5552 5548 5542 5537 5528 5517 5513 5506 5500 5496 5496 5492 5487 5486 5481
5450 5456 5461 5470 5477 5485 5492 5499 5506 5514 5523 5532 5539 5543 5549 5554 5556 5556 5557 5556 5557 5556 5553 5550 5548 5548 5547 5544 5542 5537 5530 5524 5516 5505 5500 5495 5491 5484 5484 5479 5470 5471 5468
5432 5440 5447 5457 5462 5468 5476 5484 5494 5501 5509 5518 5526 5532 5537 5541 5543 5545 5546 5546 5544 5544 5542 5540 5538 5534 5534 5532 5530 5520 5518 5512 5505 5497 5490 5484 5478 5474 5469 5466 5461 5460 5455
5412 5422 5430 5441 5450 5455 5465 5471 5478 5485 5496 5504 5510 5517 5522 5525 5528 5532 5533 5534 5534 5533 5532 5528 5525 5523 5521 5518 5515 5512 5504 5497 5491 5489 5482 5476 5466 5460 5460 5452 5451 5446 5444
5387 5404 5411 5423 5433 5442 5454 5464 5471 5476 5483 5490 5495 5501 5505 5510 5513 5516 5518 5520 5521 5521 5521 5519 5515 5511 5508 5505 5501 5497 5493 5484 5476 5473 5471 5464 5455 5450 5446 5444 5433 5430 5428
5369 5385 5393 5402 5411 5425 5434 5450 5458 5466 5474 5478 5483 5488 5494 5498 5502 5504 5505 5507 5507 5507 5507 5506 5504 5501 5497 5493 5490 5486 5478 5467 5463 5458 5454 5450 5445 5439 5435 5430 5423 5417 5415
5351 5361 5373 5386 5395 5406 5417 5428 5443 5453 5461 5466 5469 5474 5479 5485 5490 5493 5494 5495 5497 5496 5496 5494 5493 5491 5488 5484 5481 5477 5468 5457 5449 5443 5438 5436 5431 5427 5423 5420 5412 5405 5399
5333 5346 5354 5364 5373 5384 5396 5410 5426 5433 5444 5451 5454 5459 5463 5469 5476 5479 5480 5482 5483 5483 5483 5482 5481 5480 5477 5472 5470 5468 5460 5451 5439 5432 5425 5424 5420 5414 5410 5406 5401 5394 5387
5317 5328 5337 5348 5353 5365 5376 5393 5406 5416 5424 5431 5438 5443 5449 5454 5460 5464 5465 5466 5468 5467 5468 5468 5467 5465 5463 5459 5455 5453 5449 5440 5433 5423 5417 5414 5407 5403 5398 5395 5388 5381 5375
5299 5310 5319 5325 5337 5350 5362 5375 5382 5395 5403 5410 5419 5427 5432 5439 5444 5447 5448 5449 5450 5452 5452 5453 5452 5450 5448 5446 5443 5441 5434 5426 5419 5412 5408 5403 5396 5391 5387 5382 5378 5371 5367
5281 5289 5298 5308 5321 5332 5345 5357 5365 5373 5381 5388 5397 5405 5414 5422 5429 5433 5433 5435 5437 5437 5437 5438 5437 5436 5434 5433 5430 5427 5420 5412 5406 5401 5397 5391 5385 5380 5375 5369 5362 5359 5356
5258 5268 5279 5290 5300 5311 5323 5335 5344 5355 5365 5371 5378 5388 5395 5406 5414 5417 5418 5421 5423 5426 5426 5425 5426 5428 5424 5422 5422 5417 5408 5402 5397 5392 5385 5376 5370 5363 5357 5353 5350 5348 5345
5240 5250 5260 5269 5281 5291 5301 5313 5323 5335 5346 5355 5361 5371 5378 5387 5397 5400 5403 5405 5408 5410 5412 5411 5412 5411 5412 5411 5408 5402 5397 5394 5388 5380 5371 5364 5358 5353 5348 5344 5341 5338 5334